Flag for Cyprus Weather past 2 weeks in Limassol, Cyprus

Now
75 °F

Clear.


Feels Like: 78 °F
Forecast: 65 / 98 °F
Wind: 5 mph from Northeast

Location: Akrotiri

Current Time: Sep 1, 2015 at 7:08:32 AM

Latest Report: Sep 1, 2015 at 5:50 AM


Visibility: 10 mi

Pressure: 29.77 "Hg

Humidity: 57%

Dew point: 59 °F

Location of LimassolLocation

Historic Weather in Limassol — Graph

°F

Limassol temperature yesterday

Maximum temperature yesterday: 91 °F (at 1:50 PM)
Minimum temperature yesterday: 73 °F (at 4:50 AM)
Average temperature yesterday: 83 °F

Past Weeks' High & Low Weather Summary

 TemperatureHumidityPressure
High91 °F (Aug 17, 10:50 AM)89% (Aug 19, 1:50 AM)29.89 "Hg (Aug 19, 1:50 AM)
Low73 °F (Aug 21, 3:50 AM)24% (Aug 30, 9:50 AM)29.65 "Hg (Aug 23, 4:50 PM)
Average83 °F65%29.77 "Hg
* Reported Aug 17 5:50 AM — Sep 1 5:50 AM, Limassol, Weather by CustomWeather, © 2015

Note: Actual official high and low records may vary slightly from our data, if they occured in-between our weather recording intervals... More about our weather records

Advertising

Limassol weather history for previous 24 hours

 ConditionsComfort  
Time TempWeatherWind HumidityBarometerVisibility
5:50 AM
Tue, Sep 1
75 °FClear.5 mph57%29.77 "Hg10 mi
4:50 AM73 °FClear.3 mph57%29.77 "Hg10 mi
3:50 AM75 °FClear.No wind54%29.80 "Hg10 mi
2:50 AM77 °FClear.2 mph54%29.80 "Hg10 mi
1:50 AM79 °FClear.6 mph65%29.80 "Hg10 mi
12:50 AM79 °FClear.3 mph70%29.83 "Hg10 mi
11:50 PM
Mon, Aug 31
82 °FClear.9 mph74%29.83 "Hg10 mi
10:50 PM82 °FClear.8 mph66%29.83 "Hg10 mi
9:50 PM82 °FClear.7 mph66%29.83 "Hg10 mi
8:50 PM82 °FClear.7 mph66%29.83 "Hg10 mi
7:50 PM84 °FSunny.6 mph55%29.80 "Hg10 mi
6:50 PM86 °FSunny.8 mph49%29.80 "Hg10 mi
5:50 PM88 °FSunny.9 mph49%29.83 "Hg10 mi
4:50 PM88 °FPassing clouds.10 mph52%29.83 "HgN/A
3:50 PM91 °FPassing clouds.10 mph38%29.83 "HgN/A
2:50 PM90 °FPassing clouds.9 mph41%29.83 "HgN/A
1:50 PM91 °FPassing clouds.9 mph30%29.83 "HgN/A
12:50 PM90 °FPassing clouds.9 mph38%29.83 "HgN/A
11:50 AM90 °FPassing clouds.8 mph36%29.86 "HgN/A
10:50 AM88 °FSunny.10 mph49%29.83 "Hg10 mi
9:50 AM88 °FSunny.10 mph55%29.83 "Hg10 mi
8:50 AM84 °FSunny.6 mph51%29.83 "Hg10 mi
7:50 AM81 °FSunny.2 mph48%29.80 "Hg10 mi
Weather by CustomWeather, © 2015

See weather overviewHow to use our weather pages